2019-036R (44354 NORAD) Tracking and Keplerian Element Data

This shows tracking and keplerian element data for the satellite.

Feedback or suggestion? Click here.




ElementValue
Catalog44354
Name2019-036R
Epoch Orbit381
Epoch Day201.8561663
Epoch Year2019
RAAN34.6411
Inclination28.5348
Eccentricity0.0388234
Argument of Perigee15.643
Mean Anonmoly345.5793
Mean Motion14.97269309
Decay Rate5.075E-05
L11 44354U 19036R 19201.85616630 .00005075 00000-0 75899-4 0 9996
L22 44354 28.5348 34.6411 0388234 15.6430 345.5793 14.97269309 3816

Live tracking and technical data element details for 2019-036R (NORAD 44354). 2019-036R can be tracked NOW for your location showing map with azimuth and elevation plus other details from your city location.

Track the satellite on the map from your city or location and see movement details for azimuth, elevation, latitude, longitude, range, height, and movement on the map or in text.







IsCatalogInMostPopularTable: catalog: 44354, numindb: 7
Update: records affected: 1



GetName: 44354 2019-036R

Hit Count: updated at: Sun, 21 Jul 2019 20:55:44 GMT